Date,TemperatureHighF,TemperatureAvgF,TemperatureLowF,DewpointHighF,DewpointAvgF,DewpointLowF,HumidityHigh,HumidityAvg,HumidityLow,PressureMaxIn,PressureMinIn,WindSpeedMaxMPH,WindSpeedAvgMPH,GustSpeedMaxMPH,PrecipitationSumIn
2013-4-1,52,41,31,-100,-100,-100,0,0,100,0.00,40.00,0,-999,0,0.00
2013-4-2,55,43,35,-100,-100,-100,0,0,100,0.00,40.00,0,-999,0,0.00
2013-4-3,48,38,32,-100,-100,-100,0,0,100,0.00,40.00,0,-999,0,0.00
2013-4-4,47,40,35,-100,-100,-100,0,0,100,0.00,40.00,0,-999,0,0.00
2013-4-5,39,34,30,-100,-100,-100,0,0,100,0.00,40.00,0,-999,0,0.01
2013-4-6,38,33,30,-100,-100,-100,0,0,100,0.00,40.00,0,-999,0,0.01
2013-4-7,36,30,25,-100,-100,-100,0,0,100,0.00,40.00,0,-999,0,0.01
2013-4-8,27,24,22,-100,-100,-100,0,0,100,0.00,40.00,0,-999,0,0.01
2013-4-9,36,23,9,-100,-100,-100,0,0,100,0.00,40.00,0,-999,0,0.00
2013-4-10,38,29,23,-100,-100,-100,0,0,100,0.00,40.00,0,-999,0,0.01
2013-4-11,36,31,24,-100,-100,-100,0,0,100,0.00,40.00,0,-999,0,0.01
2013-4-12,44,30,18,-100,-100,-100,0,0,100,0.00,40.00,0,-999,0,0.00
2013-4-13,30,25,18,-100,-100,-100,0,0,100,0.00,40.00,0,-999,0,0.02
2013-4-14,29,21,15,-100,-100,-100,0,0,100,0.00,40.00,0,-999,0,0.01
2013-4-15,29,18,10,-100,-100,-100,0,0,100,0.00,40.00,0,-999,0,0.01
2013-4-16,26,15,6,-100,-100,-100,0,0,100,0.00,40.00,0,-999,0,0.00
2013-4-17,30,18,3,-100,-100,-100,0,0,100,0.00,40.00,0,-999,0,0.01
2013-4-18,37,24,15,-100,-100,-100,0,0,100,0.00,40.00,0,-999,0,0.01
2013-4-19,39,31,26,-100,-100,-100,0,0,100,0.00,40.00,0,-999,0,0.01
2013-4-20,39,32,29,-100,-100,-100,0,0,100,0.00,40.00,0,-999,0,0.01
2013-4-21,41,31,21,-100,-100,-100,0,0,100,0.00,40.00,0,-999,0,0.01
2013-4-22,29,20,12,-100,-100,-100,0,0,100,0.00,40.00,0,-999,0,0.01
2013-4-23,35,23,15,-100,-100,-100,0,0,100,0.00,40.00,0,-999,0,0.00
2013-4-24,48,41,33,-100,-100,-100,0,0,100,0.00,40.00,0,-999,0,0.00
2013-4-25,50,39,30,-100,-100,-100,0,0,100,0.00,40.00,0,-999,0,0.00
2013-4-26,55,42,31,-100,-100,-100,0,0,100,0.00,40.00,0,-999,0,0.00
2013-4-27,55,45,37,-100,-100,-100,0,0,100,0.00,40.00,0,-999,0,0.00
2013-4-28,47,38,34,-100,-100,-100,0,0,100,0.00,40.00,0,-999,0,0.00
2013-4-29,35,32,23,-100,-100,-100,0,0,100,0.00,40.00,0,-999,0,0.01
2013-4-30,31,22,15,-100,-100,-100,0,0,100,0.00,40.00,0,-999,0,0.01